Location: Waco, TX
(31.5480°N, 97.1670°W)
Time: 12:13:46
(UTC-05:00)

ISS - Pass Details

Date: 25 May 2018
Orbit: 402 x 408 km, 51.6° (Epoch: 19 September)

Event Time Altitude Azimuth Distance (km) Brightness Sun altitude
Rises 19:26:59 0° 217° (SW) 2,317 0.3 10.6°
Reaches altitude 10° 19:29:05 10° 214° (SSW) 1,458 -0.8 10.2°
Maximum altitude 19:32:18 61° 133° (SE) 462 -3.7 9.5°
Drops below altitude 10° 19:35:32 10° 52° (NE) 1,458 -1.3 8.9°
Sets 19:37:38 0° 49° (NE) 2,318 -0.3 8.4°
